Vertical_Velocity
1 1 1 1 0 1 1 2 4 3 2 1 1 1 1 2 2 1 1 1 1 1 1 1 1 1 1 0 0 0 0 0 0 0 0 0 -0 -0 -1 -1 -1 -1 -1 -2 -1 -1 -1 -1 -1 -1 -1 -1 -0 -0 -1 -0 0 0 -0 -0 -0 -0 -0 -0 -0 -0 -0 -1 -1
1 1 1 1 1 1 2 3 2 1 1 -0 0 1 2 2 2 1 1 1 1 1 1 1 1 0 0 0 0 0 0 -0 -0 -0 -0 -0 -0 -1 -1 -1 -1 -1 -1 -1 -1 -1 -1 -1 -1 -1 -1 -1 -0 -0 -1 -1 -0 0 -0 -0 -0 -0 -0 -0 -0 -0 -1 -1 -1
1 1 1 0 1 1 1 0 -0 -1 -1 -0 0 1 2 2 2 1 1 1 1 1 1 0 0 0 0 0 0 -0 -0 -0 -1 -1 -1 -1 -1 -1 -1 -1 -2 -2 -1 -1 -1 -1 -1 -1 -1 -1 -1 -1 -1 -1 -1 -1 -0 -0 -0 -0 -0 -0 -0 -0 -0 -1 -1 -1 -1
1 1 0 -0 -0 -0 -1 -2 -2 -1 -1 -0 0 1 1 1 1 1 1 1 1 1 0 0 -0 -0 -0 0 0 -0 -0 -1 -1 -1 -1 -1 -1 -1 -1 -1 -1 -2 -1 -1 -1 -1 -1 -1 -1 -1 -1 -1 -1 -1 -1 -1 -1 -0 -0 0 -0 -0 -0 -0 -0 -1 -1 -1 -1
0 -0 -0 -0 0 -0 -1 -1 0 0 1 1 1 1 1 1 1 1 1 1 1 1 0 0 0 -0 -0 -0 -0 -1 -1 -1 -1 -1 -1 -1 -1 -1 -1 -1 -1 -1 -2 -2 -1 -1 -1 -1 -1 -1 -1 -1 -1 -1 -1 -0 -0 -0 -0 0 -0 -0 -0 -1 -1 -1 -1 -1 -1
0 1 1 2 2 1 1 2 2 2 1 2 1 1 1 1 1 1 1 1 1 1 1 0 0 0 -0 -0 -1 -1 -1 -1 -1 -1 -1 -1 -1 -1 -1 -1 -1 -1 -1 -1 -1 -1 -1 -1 -1 -1 -1 -1 -1 -1 -1 -1 -0 -0 -0 0 -0 -0 -0 -1 -1 -1 -1 -1 -1
1 2 2 2 1 1 1 1 2 1 1 1 1 1 0 1 1 1 1 1 1 1 1 0 0 0 -0 -1 -1 -1 -1 -1 -1 -1 -1 -1 -1 -1 -1 -1 -1 -1 -2 -1 -1 -1 -1 -1 -1 -1 -1 -1 -1 -1 -1 -1 -0 -0 -0 0 -0 -0 -1 -1 -1 -1 -1 -1 -1
2 2 1 0 0 0 0 1 1 1 1 1 1 1 1 1 1 1 1 1 1 1 0 0 0 -0 -1 -1 -1 -1 -1 -1 -1 -1 -1 -1 -1 -1 -1 -1 -1 -1 -1 -1 -1 -1 -1 -1 -1 -1 -1 -1 -1 -1 -1 -1 -0 -0 -0 -0 -0 -0 -0 -1 -1 -1 -1 -2 -1
2 2 1 1 1 1 1 1 1 1 1 1 1 1 1 1 1 1 1 1 1 1 1 1 -0 -0 -1 -1 -1 -1 -1 -1 -1 -1 -1 -1 -1 -1 -1 -1 -1 -2 -2 -1 -1 -1 -1 -1 -1 -1 -1 -1 -0 -0 -1 -1 -0 -1 -1 -1 -0 -0 -0 -0 -0 -1 -1 -2 -2
0 0 0 1 1 1 1 2 2 1 1 1 1 1 1 1 1 1 1 0 1 1 1 0 -0 -1 -1 -2 -1 -1 -1 -1 -1 -1 -1 -1 -1 -1 -1 -1 -1 -2 -2 -1 -1 -1 -1 -1 -1 -1 -1 -1 -0 -0 -0 -1 -1 -1 -1 -1 -1 -0 -0 0 -0 -1 -1 -2 -2
0 0 0 0 1 1 2 2 2 1 1 1 1 1 1 1 1 1 1 0 1 1 0 0 -0 -1 -1 -2 -1 -1 -1 -1 -1 -1 -1 -1 -1 -1 -1 -1 -1 -1 -1 -1 -1 -1 -1 -1 -1 -1 -1 -1 -0 -0 -0 -1 -1 -1 -1 -1 -1 -1 -0 0 -0 -1 -1 -2 -2
2 2 2 2 2 1 1 1 1 1 1 1 1 1 1 1 1 1 1 1 1 0 0 -0 -0 -1 -1 -1 -1 -1 -1 -0 -0 -1 -1 -1 -1 -1 -1 -1 -1 -2 -2 -1 -1 -1 -1 -1 -1 -1 -1 -0 -0 -0 -0 -1 -1 -1 -1 -0 -1 -1 -0 0 0 -0 -1 -2 -2
2 2 2 2 2 2 1 1 1 1 1 1 1 2 2 1 1 1 1 0 0 0 0 -0 -1 -1 -1 -1 -1 -1 -0 -0 -0 -1 -1 -1 -1 -1 -2 -2 -2 -2 -2 -2 -2 -2 -1 -1 -1 -1 -0 -0 -0 -0 -0 -0 -1 -1 -1 -0 -0 -0 -0 -0 -0 -0 -1 -2 -2
2 2 2 2 1 1 1 1 1 2 2 2 2 2 1 1 1 0 0 0 0 0 0 -0 -1 -1 -1 -1 -1 -1 -1 -0 -1 -1 -1 -1 -1 -2 -2 -2 -2 -2 -2 -2 -2 -2 -2 -1 -1 -1 -1 -0 0 0 0 -0 -0 -1 -1 -1 -1 -1 -0 -0 -0 -1 -1 -2 -2
2 1 1 2 1 1 1 1 1 2 2 2 1 1 1 1 0 0 0 0 0 -0 -0 -0 -0 -1 -1 -1 -1 -1 -1 -1 -1 -1 -1 -1 -2 -2 -2 -2 -3 -3 -3 -2 -2 -2 -2 -1 -1 -1 -1 -0 0 0 0 -0 -0 -0 -1 -1 -1 -1 -1 -1 -1 -1 -1 -2 -2
0 1 1 1 1 1 1 1 1 2 2 2 1 1 1 1 0 0 0 0 -0 -0 -0 -0 -1 -1 -1 -1 -1 -1 -1 -1 -1 -1 -1 -2 -2 -2 -3 -3 -3 -3 -3 -3 -2 -2 -1 -1 -1 -1 -1 -1 -0 0 0 0 -0 -0 -0 -1 -1 -1 -1 -1 -1 -1 -1 -1 -2
0 0 1 1 1 1 1 1 2 2 2 1 1 1 1 0 0 0 0 0 -0 -0 -0 -1 -1 -1 -1 -1 -1 -1 -1 -1 -1 -2 -2 -2 -2 -3 -3 -3 -3 -3 -3 -2 -2 -1 -1 -1 -1 -1 -1 -0 -0 -0 -0 -0 -0 -1 -1 -1 -1 -1 -1 -1 -1 -1 -1 -1 -1
-0 0 1 1 1 1 1 2 2 2 2 1 1 1 1 0 0 0 0 0 0 -0 -0 -1 -1 -1 -1 -1 -1 -1 -1 -1 -1 -2 -2 -2 -2 -3 -3 -3 -3 -3 -3 -2 -1 -1 -0 -0 -0 -0 -0 -0 -0 -0 -0 -1 -1 -1 -1 -1 -1 -1 -1 -1 -1 -1 -1 -1 -1
-0 0 1 1 1 1 2 2 2 2 2 1 1 1 1 1 0 0 0 0 -0 -0 -0 -1 -1 -1 -1 -1 -1 -1 -1 -1 -1 -2 -2 -2 -3 -3 -3 -3 -3 -3 -3 -2 -1 -1 -0 -0 -0 -0 -0 -0 -0 -0 -1 -1 -1 -1 -1 -1 -1 -1 -1 -0 -0 -0 -0 -1 -1
0 0 0 1 2 2 2 2 2 2 2 2 2 1 1 1 0 0 0 0 0 -0 -0 -0 -1 -1 -1 -1 -1 -1 -1 -1 -1 -2 -2 -3 -3 -3 -4 -4 -3 -3 -2 -1 -1 -1 -0 -0 -0 -0 -0 -0 -1 -1 -1 -1 -2 -2 -2 -2 -1 -1 -0 -0 0 0 0 0 -0
0 1 1 3 3 3 2 2 2 2 2 2 1 1 1 1 0 0 0 1 0 0 -0 -0 -1 -1 -1 -1 -1 -1 -1 -1 -1 -2 -2 -3 -3 -4 -4 -4 -3 -2 -1 -1 -0 -0 -0 -0 -0 -0 -0 -1 -1 -1 -1 -2 -2 -2 -2 -1 -1 -1 -0 0 0 0 0 0 0
1 3 4 4 4 3 3 3 2 2 2 2 1 1 1 1 0 0 0 1 1 0 0 -0 -0 -1 -1 -1 -1 -1 -1 -1 -1 -2 -2 -3 -3 -3 -4 -4 -3 -2 -1 -0 -0 -0 -1 -0 -0 -0 -1 -1 -1 -1 -2 -2 -2 -2 -1 -1 -1 -0 0 0 0 0 0 1 0
4 5 5 4 4 4 3 2 2 2 2 2 1 1 1 0 0 0 1 1 1 1 0 -0 -0 -0 -0 -0 -0 -0 -0 -1 -1 -2 -2 -3 -3 -3 -3 -3 -2 -1 -1 -0 -0 -1 -1 -1 -0 -0 -0 -1 -1 -1 -1 -2 -2 -2 -2 -1 -1 -1 -0 -0 0 0 0 0 0
6 5 5 4 4 3 2 2 2 2 2 2 1 1 1 0 0 0 1 1 1 0 0 -0 -0 -0 -0 -0 -0 -0 -0 -1 -1 -1 -2 -3 -3 -3 -3 -2 -2 -1 -1 -0 -0 -1 -1 -2 -1 -0 -0 -0 -1 -1 -1 -1 -1 -1 -2 -2 -2 -2 -2 -1 -0 -0 0 0 0
6 5 4 3 2 2 2 2 2 2 2 1 1 1 1 0 1 1 1 1 0 0 -0 -0 -0 -0 -0 -0 -0 -0 -0 -1 -1 -1 -2 -2 -2 -2 -2 -2 -1 -1 -1 -0 -0 -1 -1 -2 -2 -2 -1 -1 -1 -1 -1 -1 -1 -1 -2 -3 -3 -4 -4 -3 -2 -1 -0 -0 -0
6 5 4 2 2 2 2 2 2 2 2 2 1 1 1 1 1 1 1 1 0 0 -0 -0 -0 -0 -0 -0 -0 -1 -1 -1 -1 -2 -2 -2 -2 -1 -1 -1 -1 -0 -0 -0 -0 -0 -1 -1 -1 -2 -2 -3 -4 -4 -4 -3 -3 -3 -3 -3 -4 -4 -4 -5 -4 -3 -1 -1 -1
6 4 2 2 3 3 3 3 3 3 2 2 1 1 1 1 1 1 1 1 0 0 -0 -0 -0 -0 -1 -1 -1 -1 -1 -1 -2 -2 -3 -3 -2 -2 -1 -1 -1 -0 -0 0 0 -0 -0 -0 0 0 -0 -2 -3 -4 -5 -5 -4 -4 -3 -3 -3 -3 -4 -4 -5 -4 -3 -2 -1
4 3 2 3 3 3 3 4 4 3 2 1 1 1 1 1 1 1 1 1 1 0 0 -0 -0 -1 -1 -1 -1 -1 -1 -1 -1 -2 -2 -3 -3 -2 -2 -2 -1 -1 -0 0 -0 -0 -0 -0 0 1 1 1 -1 -2 -3 -3 -3 -3 -3 -2 -2 -2 -3 -3 -3 -4 -3 -3 -2
4 3 3 3 3 3 4 4 3 2 2 2 2 1 1 1 1 1 1 1 1 1 0 -0 -1 -1 -1 -1 -1 -1 -1 -1 -1 -2 -2 -2 -2 -2 -2 -3 -2 -1 -0 1 0 -0 -0 -0 -0 1 2 2 1 -0 -1 -2 -1 -2 -2 -2 -2 -2 -2 -2 -2 -2 -2 -3 -2
4 4 3 3 3 4 4 3 2 2 2 2 1 1 1 1 1 2 2 1 1 1 1 -0 -1 -1 -1 -1 -1 -1 -1 -1 -1 -1 -1 -2 -2 -2 -2 -2 -2 -1 -0 1 1 0 -0 -0 -0 0 1 2 2 1 -1 -1 -1 -1 -2 -2 -2 -1 -1 -1 -1 -1 -1 -1 -2
4 4 4 4 4 4 4 4 3 3 2 1 1 1 1 1 2 2 2 2 2 1 0 -0 -1 -1 -1 -1 -1 -1 -1 -1 -1 -1 -1 -1 -2 -2 -2 -2 -2 -1 0 2 2 1 1 0 0 1 1 2 2 1 -0 -1 -1 -1 -1 -2 -1 -1 -0 -0 -0 -0 -0 0 -0
5 5 5 5 5 4 4 4 3 2 1 1 1 1 1 1 2 2 2 2 1 1 -0 -1 -1 -1 -1 -1 -1 -1 -1 -1 -1 -0 -0 -1 -1 -2 -2 -2 -2 -1 1 2 2 1 1 1 0 1 1 2 2 1 -0 -1 -1 -1 -1 -1 -1 -1 0 0 -0 -0 -0 1 0
5 5 5 5 5 4 4 3 2 2 1 1 1 1 1 1 2 2 2 2 1 0 -1 -1 -1 -1 -1 -1 -1 -1 -1 -1 -0 -0 0 -0 -1 -2 -3 -3 -2 -0 1 2 2 1 1 1 0 1 1 2 2 0 -1 -1 -1 -1 -1 -2 -1 -1 0 1 0 0 0 1 1
4 5 5 5 4 4 3 2 2 2 1 1 1 1 2 2 2 2 2 2 1 -0 -1 -1 -1 -1 -1 -1 -1 -1 -1 -1 -0 -0 0 0 -0 -1 -2 -3 -2 -0 1 2 1 1 1 1 1 1 1 2 1 -0 -1 -1 -1 -1 -1 -2 -1 -1 -0 1 1 1 1 1 1
4 4 4 4 4 3 3 2 2 2 1 1 1 2 2 2 2 2 2 2 0 -1 -1 -1 -1 -1 -1 -1 -1 -1 -1 -2 -1 -1 -0 0 -0 -1 -2 -3 -2 -0 1 2 2 1 1 1 1 1 1 1 -0 -1 -1 -1 -1 -1 -2 -2 -2 -1 -0 1 1 1 1 1 1
4 4 4 4 3 3 2 2 2 2 2 2 2 2 2 2 2 2 2 1 -0 -1 -1 -0 -0 -0 -1 -0 0 -0 -0 -1 -1 -1 -0 0 0 -1 -3 -4 -3 -1 1 2 2 2 2 2 1 1 2 1 -0 -1 -1 -0 -1 -2 -2 -2 -2 -2 -0 1 1 1 1 1 1
5 5 4 4 3 3 3 3 3 2 2 2 2 2 2 2 2 2 2 1 -0 -1 -1 -0 -0 -0 -0 0 1 1 0 0 -0 -1 -1 0 1 -0 -2 -4 -4 -3 0 2 2 2 2 2 2 2 2 1 -1 -1 -1 -0 -1 -2 -3 -3 -3 -2 -0 1 2 1 1 1 2
6 6 5 4 4 4 4 4 3 3 2 2 2 2 2 2 1 2 2 1 0 -0 -1 -0 -0 -0 1 1 0 -0 -0 1 1 -0 -1 -1 1 0 -1 -5 -6 -4 -1 2 2 2 2 2 2 3 3 2 -1 -1 -1 -1 -1 -2 -3 -4 -4 -2 -1 1 1 1 1 1 1
6 5 5 4 4 4 5 4 4 3 3 3 3 2 2 2 2 2 2 2 1 -0 -1 -1 -1 0 1 1 -0 -1 -1 0 1 1 -0 -1 -0 1 -0 -4 -7 -6 -2 1 2 2 1 1 2 3 4 3 1 -0 -1 -1 -2 -3 -4 -3 -3 -2 -1 1 1 0 0 1 2
6 5 5 5 5 6 5 4 4 4 4 3 3 2 2 2 1 1 1 1 1 0 -0 -1 -1 0 1 1 -1 -2 -2 -1 1 1 1 -0 -0 0 -0 -3 -6 -6 -4 0 2 2 1 1 1 2 4 4 2 1 0 0 -1 -3 -4 -3 -2 -1 -1 0 1 -0 -1 -1 2
6 6 6 6 6 6 5 4 4 4 3 3 2 2 2 1 1 1 1 1 1 0 0 -0 -0 -0 1 1 -0 -2 -3 -3 -1 1 2 1 -0 -0 -0 -1 -4 -5 -4 -1 1 2 2 1 1 2 4 4 3 2 1 0 -1 -3 -4 -3 -0 0 -0 -1 -0 -0 -1 -2 -1
Height
1523 1524 1526 1527 1528 1529 1531 1532 1533 1534 1535 1535 1536 1537 1538 1539 1539 1540 1541 1542 1542 1542 1542 1543 1543 1543 1543 1543 1543 1542 1542 1542 1542 1541 1541 1540 1539 1539 1538 1537 1537 1536 1535 1534 1534 1533 1532 1532 1531 1530 1529 1528 1527 1527 1526 1525 1524 1523 1522 1521 1520 1519 1519 1518 1517 1517 1516 1515 1515
1522 1523 1524 1525 1527 1528 1529 1530 1531 1532 1533 1533 1535 1536 1537 1537 1538 1539 1540 1540 1541 1541 1542 1542 1542 1542 1542 1542 1542 1541 1541 1541 1540 1540 1539 1538 1538 1537 1537 1536 1535 1534 1534 1533 1532 1531 1531 1530 1529 1528 1527 1526 1526 1525 1524 1523 1522 1522 1521 1520 1519 1518 1517 1516 1515 1515 1514 1513 1513
1520 1521 1522 1523 1525 1526 1527 1528 1529 1530 1531 1532 1533 1534 1535 1536 1537 1538 1538 1539 1539 1540 1540 1540 1540 1540 1540 1540 1540 1540 1539 1539 1539 1538 1537 1537 1536 1536 1535 1534 1533 1533 1532 1531 1531 1530 1529 1528 1527 1527 1526 1525 1524 1523 1522 1521 1520 1520 1519 1518 1517 1516 1515 1514 1514 1513 1512 1512 1511
1519 1520 1521 1522 1523 1524 1525 1526 1527 1528 1530 1531 1532 1533 1534 1535 1536 1537 1537 1537 1538 1538 1538 1539 1539 1539 1539 1538 1538 1538 1538 1537 1537 1537 1536 1536 1535 1534 1533 1533 1532 1531 1530 1530 1529 1528 1527 1527 1526 1525 1524 1523 1522 1521 1520 1519 1519 1518 1517 1516 1515 1514 1513 1513 1512 1511 1511 1510 1509
1517 1518 1519 1520 1522 1522 1524 1525 1526 1527 1528 1529 1531 1532 1532 1533 1534 1535 1536 1536 1536 1537 1537 1537 1537 1537 1537 1537 1537 1537 1536 1536 1536 1535 1535 1534 1533 1533 1532 1531 1530 1530 1529 1528 1527 1527 1526 1525 1524 1523 1522 1521 1520 1520 1519 1518 1517 1516 1515 1514 1514 1513 1512 1511 1510 1509 1509 1508 1507
1516 1517 1518 1519 1520 1521 1522 1523 1525 1526 1527 1528 1529 1530 1531 1532 1533 1533 1534 1534 1535 1535 1535 1535 1535 1535 1535 1535 1535 1535 1535 1534 1534 1534 1533 1532 1532 1531 1531 1530 1529 1528 1527 1526 1526 1525 1524 1523 1522 1521 1520 1520 1519 1518 1517 1516 1515 1515 1514 1513 1512 1511 1510 1509 1508 1508 1507 1507 1506
1514 1515 1517 1517 1518 1519 1521 1522 1523 1524 1526 1527 1528 1529 1530 1530 1531 1532 1532 1533 1533 1533 1533 1534 1534 1534 1534 1534 1534 1533 1533 1533 1532 1532 1532 1531 1531 1530 1529 1528 1527 1527 1526 1525 1524 1523 1522 1522 1521 1520 1519 1518 1517 1516 1515 1514 1514 1513 1512 1511 1510 1509 1509 1508 1507 1506 1505 1505 1504
1513 1514 1515 1516 1517 1518 1519 1520 1522 1523 1524 1525 1526 1527 1528 1529 1530 1530 1531 1531 1532 1532 1532 1532 1532 1532 1532 1532 1532 1532 1532 1532 1531 1531 1530 1530 1529 1528 1527 1527 1526 1525 1524 1523 1522 1522 1521 1520 1519 1518 1517 1516 1515 1514 1513 1513 1512 1511 1511 1510 1509 1508 1507 1506 1505 1504 1504 1503 1502
1512 1512 1513 1514 1515 1517 1518 1519 1520 1522 1522 1524 1525 1526 1527 1527 1528 1528 1529 1529 1530 1530 1530 1530 1530 1531 1531 1531 1531 1530 1530 1530 1530 1529 1529 1528 1527 1527 1526 1525 1524 1523 1522 1522 1521 1520 1519 1518 1517 1517 1516 1515 1514 1513 1512 1511 1510 1509 1509 1508 1507 1506 1506 1505 1504 1503 1502 1502 1501
1510 1511 1512 1512 1514 1515 1517 1518 1519 1520 1521 1522 1523 1524 1525 1526 1526 1527 1527 1528 1528 1528 1528 1529 1529 1529 1529 1529 1529 1529 1529 1528 1528 1527 1527 1527 1526 1525 1524 1523 1523 1522 1521 1520 1519 1518 1517 1517 1516 1515 1514 1513 1512 1511 1510 1509 1508 1508 1507 1506 1505 1505 1504 1503 1502 1501 1501 1500 1499
1508 1509 1510 1511 1512 1514 1515 1516 1517 1518 1519 1521 1522 1522 1523 1524 1525 1525 1526 1526 1526 1527 1527 1527 1527 1527 1527 1527 1527 1527 1527 1527 1527 1526 1526 1525 1524 1523 1523 1522 1521 1520 1519 1518 1517 1517 1516 1515 1514 1513 1512 1511 1510 1509 1508 1507 1507 1506 1505 1504 1503 1503 1502 1502 1501 1500 1499 1498 1497
1507 1507 1508 1510 1511 1512 1513 1514 1516 1517 1518 1519 1520 1521 1522 1522 1523 1523 1524 1524 1525 1525 1525 1525 1526 1526 1526 1526 1526 1526 1526 1525 1525 1524 1524 1523 1522 1522 1521 1520 1519 1518 1517 1517 1516 1515 1514 1513 1512 1511 1510 1509 1508 1507 1507 1506 1505 1504 1503 1502 1502 1501 1501 1500 1499 1498 1497 1497 1496
1505 1506 1507 1508 1510 1511 1512 1513 1514 1515 1516 1517 1518 1519 1520 1521 1521 1522 1522 1522 1523 1523 1523 1524 1524 1524 1524 1524 1524 1524 1524 1524 1523 1523 1522 1522 1521 1520 1519 1518 1517 1517 1516 1515 1514 1513 1512 1511 1510 1509 1509 1508 1507 1506 1505 1504 1503 1502 1502 1501 1500 1499 1499 1498 1497 1497 1496 1495 1494
1504 1505 1506 1507 1508 1509 1510 1511 1512 1513 1515 1516 1517 1517 1518 1519 1519 1520 1521 1521 1521 1522 1522 1522 1522 1522 1522 1522 1522 1522 1522 1522 1522 1521 1520 1520 1519 1518 1517 1517 1516 1515 1514 1513 1512 1511 1510 1509 1508 1507 1507 1506 1505 1504 1503 1502 1502 1501 1500 1499 1498 1497 1497 1496 1496 1495 1494 1493 1492
1502 1503 1504 1506 1507 1507 1509 1510 1511 1512 1513 1514 1515 1516 1517 1517 1518 1518 1519 1519 1520 1520 1520 1521 1521 1521 1521 1521 1521 1521 1521 1520 1520 1519 1518 1518 1517 1516 1516 1515 1514 1513 1512 1511 1510 1509 1508 1507 1507 1506 1505 1504 1503 1502 1502 1501 1500 1499 1498 1497 1497 1496 1495 1495 1494 1493 1492 1492 1491
1501 1502 1503 1504 1505 1506 1507 1508 1509 1510 1512 1512 1513 1514 1515 1516 1516 1517 1517 1518 1518 1518 1519 1519 1519 1519 1519 1519 1519 1519 1519 1518 1518 1517 1517 1516 1515 1514 1514 1513 1512 1511 1510 1509 1508 1507 1506 1505 1504 1504 1503 1502 1502 1501 1500 1499 1498 1497 1496 1496 1495 1494 1493 1493 1492 1491 1491 1490 1489
1499 1500 1501 1502 1503 1504 1505 1507 1507 1509 1510 1511 1512 1512 1513 1514 1514 1515 1516 1516 1517 1517 1517 1517 1517 1518 1518 1518 1517 1517 1517 1517 1516 1515 1515 1514 1513 1512 1512 1511 1510 1509 1508 1507 1507 1506 1505 1503 1502 1502 1501 1500 1500 1499 1498 1497 1497 1496 1495 1494 1493 1492 1492 1491 1490 1489 1489 1488 1487
1497 1498 1499 1500 1501 1502 1504 1505 1506 1507 1508 1509 1510 1511 1512 1512 1513 1514 1514 1515 1515 1515 1516 1516 1516 1516 1516 1516 1516 1516 1515 1515 1514 1513 1513 1512 1512 1511 1510 1509 1508 1507 1507 1506 1505 1504 1503 1502 1501 1500 1499 1498 1497 1497 1496 1496 1495 1494 1493 1492 1492 1491 1490 1489 1488 1488 1487 1486 1485
1495 1496 1497 1498 1500 1501 1502 1503 1505 1506 1507 1508 1508 1509 1510 1511 1512 1512 1512 1513 1513 1514 1514 1514 1514 1514 1514 1514 1514 1513 1513 1512 1512 1511 1511 1510 1510 1509 1508 1507 1507 1506 1504 1503 1502 1502 1501 1500 1499 1498 1497 1497 1496 1495 1494 1493 1493 1492 1491 1491 1490 1489 1488 1488 1487 1486 1485 1484 1483
1493 1494 1495 1497 1498 1499 1501 1502 1503 1504 1505 1506 1507 1508 1508 1509 1510 1511 1511 1512 1512 1512 1512 1512 1512 1512 1512 1512 1512 1512 1511 1511 1510 1509 1509 1508 1508 1507 1506 1506 1505 1503 1502 1502 1501 1500 1499 1498 1497 1497 1496 1495 1494 1493 1492 1492 1491 1490 1489 1489 1488 1487 1487 1486 1485 1484 1483 1482 1482
1491 1492 1494 1495 1497 1498 1499 1501 1502 1503 1504 1504 1505 1506 1507 1508 1508 1509 1510 1510 1510 1511 1511 1511 1511 1511 1511 1511 1510 1510 1509 1509 1508 1507 1507 1507 1506 1505 1504 1503 1502 1502 1501 1500 1499 1498 1497 1497 1496 1495 1494 1493 1492 1492 1491 1490 1489 1488 1487 1487 1486 1486 1485 1484 1483 1482 1482 1481 1480
1490 1491 1493 1494 1496 1497 1498 1499 1500 1501 1502 1503 1504 1505 1506 1506 1507 1507 1508 1508 1509 1509 1509 1509 1509 1509 1509 1509 1508 1508 1507 1507 1506 1506 1505 1505 1504 1503 1502 1501 1500 1499 1498 1498 1497 1496 1495 1494 1494 1493 1492 1491 1490 1489 1489 1488 1487 1486 1486 1485 1484 1484 1483 1482 1482 1481 1480 1479 1478
1489 1490 1492 1493 1494 1496 1497 1497 1498 1499 1500 1501 1502 1503 1504 1505 1505 1506 1507 1507 1507 1507 1507 1507 1507 1507 1507 1507 1507 1506 1505 1505 1504 1504 1503 1503 1502 1501 1500 1499 1498 1497 1497 1496 1495 1494 1493 1492 1492 1491 1490 1489 1488 1487 1487 1486 1485 1484 1484 1483 1482 1482 1481 1480 1479 1479 1478 1477 1476
1487 1489 1490 1492 1493 1494 1495 1496 1497 1498 1499 1500 1501 1502 1502 1503 1504 1504 1505 1505 1506 1506 1506 1506 1506 1506 1505 1505 1505 1504 1504 1503 1503 1502 1502 1501 1500 1499 1498 1497 1497 1496 1495 1494 1493 1492 1491 1491 1490 1489 1488 1487 1486 1485 1485 1484 1483 1482 1482 1481 1480 1479 1478 1478 1477 1477 1476 1474 1473
1486 1487 1489 1490 1491 1492 1493 1494 1495 1496 1497 1498 1499 1500 1501 1502 1502 1503 1503 1503 1504 1504 1504 1504 1504 1504 1503 1503 1503 1502 1502 1502 1501 1500 1500 1499 1498 1497 1496 1496 1495 1494 1493 1492 1491 1490 1489 1488 1487 1487 1486 1485 1484 1483 1482 1482 1481 1480 1479 1478 1477 1477 1476 1475 1475 1474 1473 1472 1471
1484 1486 1487 1488 1489 1490 1491 1492 1493 1495 1496 1497 1498 1499 1499 1500 1501 1501 1502 1502 1502 1502 1502 1502 1502 1502 1502 1501 1501 1501 1500 1500 1499 1498 1498 1497 1496 1495 1495 1494 1493 1492 1491 1490 1489 1488 1487 1486 1485 1484 1483 1482 1481 1480 1479 1479 1478 1477 1477 1476 1475 1474 1473 1472 1472 1471 1470 1469 1468
1483 1484 1485 1486 1487 1489 1490 1491 1492 1493 1494 1495 1497 1497 1498 1499 1499 1500 1500 1500 1500 1501 1500 1500 1500 1500 1500 1499 1499 1499 1498 1497 1497 1496 1496 1495 1494 1493 1493 1492 1491 1490 1489 1488 1487 1486 1485 1484 1483 1482 1481 1480 1478 1477 1477 1476 1475 1475 1474 1473 1472 1472 1471 1470 1469 1468 1467 1467 1466
1481 1482 1483 1485 1486 1487 1488 1490 1491 1492 1493 1494 1495 1496 1497 1497 1498 1498 1498 1499 1499 1499 1498 1498 1498 1498 1497 1497 1497 1497 1496 1496 1495 1494 1493 1492 1492 1491 1491 1490 1489 1488 1487 1486 1485 1484 1483 1482 1481 1480 1479 1478 1476 1475 1474 1473 1473 1472 1471 1471 1470 1469 1468 1467 1466 1465 1464 1463 1463
1479 1481 1482 1483 1484 1486 1487 1488 1490 1491 1492 1493 1494 1495 1495 1496 1496 1497 1497 1497 1497 1497 1497 1496 1496 1496 1496 1495 1495 1495 1494 1493 1493 1492 1491 1490 1489 1489 1488 1487 1487 1486 1485 1484 1483 1482 1481 1480 1479 1478 1477 1476 1475 1473 1472 1471 1470 1470 1469 1468 1467 1466 1465 1464 1463 1462 1462 1461 1460
1478 1479 1480 1482 1483 1484 1486 1487 1488 1490 1491 1492 1492 1493 1494 1494 1495 1495 1495 1495 1495 1495 1495 1494 1494 1494 1494 1493 1493 1492 1492 1492 1491 1490 1489 1488 1487 1487 1486 1485 1484 1484 1483 1482 1481 1480 1478 1477 1477 1476 1475 1474 1472 1471 1470 1469 1468 1467 1466 1465 1465 1464 1463 1462 1461 1460 1459 1458 1457
1476 1477 1479 1480 1482 1483 1485 1486 1487 1489 1490 1490 1491 1492 1492 1493 1493 1493 1494 1494 1493 1493 1493 1492 1492 1492 1492 1492 1491 1491 1490 1489 1488 1488 1487 1486 1485 1484 1483 1483 1482 1481 1481 1480 1479 1477 1476 1475 1474 1473 1472 1472 1470 1469 1467 1467 1466 1465 1464 1463 1462 1461 1460 1459 1458 1457 1457 1456 1454
1475 1476 1478 1479 1481 1482 1484 1485 1487 1487 1488 1489 1490 1490 1491 1491 1492 1492 1492 1492 1492 1491 1491 1491 1490 1490 1490 1489 1489 1488 1488 1487 1486 1486 1485 1483 1482 1482 1481 1480 1480 1479 1478 1477 1476 1475 1474 1473 1472 1471 1470 1469 1468 1467 1465 1464 1463 1462 1461 1460 1460 1459 1458 1457 1456 1455 1454 1453 1452
1474 1475 1477 1479 1480 1482 1483 1485 1486 1486 1487 1488 1488 1489 1489 1490 1490 1490 1490 1490 1490 1489 1489 1489 1488 1488 1488 1487 1487 1486 1486 1485 1484 1483 1482 1481 1480 1479 1478 1478 1477 1477 1476 1475 1474 1473 1472 1471 1469 1468 1467 1467 1465 1464 1463 1462 1461 1460 1459 1458 1457 1456 1456 1455 1453 1452 1452 1451 1450
1473 1475 1476 1478 1480 1481 1482 1483 1484 1485 1486 1487 1487 1487 1488 1488 1488 1488 1488 1488 1488 1487 1487 1487 1487 1486 1486 1485 1485 1484 1483 1482 1482 1481 1480 1479 1478 1477 1476 1475 1475 1474 1474 1473 1472 1470 1469 1468 1467 1466 1465 1464 1463 1462 1460 1459 1458 1457 1456 1455 1454 1453 1453 1452 1451 1450 1449 1448 1447
1472 1474 1476 1477 1479 1480 1482 1482 1483 1484 1485 1485 1486 1486 1487 1487 1487 1487 1487 1486 1486 1485 1485 1485 1484 1484 1483 1483 1482 1482 1481 1480 1479 1479 1478 1477 1476 1474 1473 1472 1472 1472 1471 1470 1469 1468 1467 1466 1465 1463 1462 1461 1460 1458 1457 1456 1455 1454 1453 1452 1451 1451 1450 1449 1448 1447 1447 1446 1445
1471 1473 1475 1477 1478 1479 1481 1482 1482 1483 1483 1484 1484 1485 1485 1485 1485 1485 1485 1484 1484 1483 1483 1483 1482 1482 1482 1481 1480 1479 1479 1478 1477 1476 1475 1474 1473 1472 1471 1470 1469 1469 1469 1468 1467 1466 1464 1463 1462 1461 1460 1458 1457 1456 1454 1453 1452 1451 1450 1449 1448 1447 1447 1446 1445 1445 1444 1443 1442
1471 1473 1475 1476 1477 1479 1480 1481 1481 1482 1482 1482 1483 1483 1483 1483 1483 1483 1483 1482 1482 1482 1481 1481 1480 1480 1479 1479 1478 1477 1476 1476 1475 1474 1473 1472 1471 1470 1468 1467 1467 1466 1466 1466 1464 1463 1462 1461 1460 1458 1457 1456 1454 1453 1452 1450 1449 1448 1447 1446 1445 1444 1444 1443 1442 1442 1441 1440 1439
1471 1473 1474 1476 1477 1478 1479 1479 1480 1481 1481 1481 1482 1482 1482 1482 1482 1481 1481 1481 1480 1480 1479 1479 1478 1477 1477 1477 1476 1475 1474 1473 1472 1471 1470 1469 1468 1467 1466 1464 1463 1463 1463 1463 1462 1461 1459 1458 1457 1456 1455 1453 1451 1450 1448 1447 1446 1445 1444 1442 1442 1441 1440 1440 1439 1438 1437 1437 1437
1471 1473 1474 1476 1477 1477 1478 1478 1479 1479 1480 1480 1480 1480 1480 1480 1480 1479 1479 1479 1478 1477 1477 1477 1476 1475 1475 1474 1473 1472 1471 1471 1470 1469 1468 1467 1466 1465 1463 1462 1461 1460 1460 1460 1459 1458 1457 1455 1454 1453 1452 1450 1449 1447 1446 1444 1443 1442 1440 1439 1438 1437 1437 1437 1436 1435 1434 1434 1433
1471 1473 1474 1475 1476 1477 1477 1477 1478 1478 1479 1479 1479 1479 1478 1478 1478 1477 1477 1477 1476 1476 1475 1474 1474 1473 1472 1472 1470 1469 1468 1468 1467 1467 1465 1464 1463 1462 1461 1459 1458 1457 1457 1457 1456 1455 1454 1452 1452 1450 1449 1448 1446 1444 1443 1441 1440 1438 1437 1436 1435 1434 1433 1433 1432 1432 1431 1430 1430
1471 1473 1474 1475 1475 1476 1476 1477 1477 1477 1477 1477 1477 1477 1477 1476 1476 1476 1475 1475 1474 1473 1473 1472 1471 1471 1470 1469 1468 1467 1466 1465 1464 1464 1463 1462 1461 1459 1458 1457 1455 1454 1453 1453 1452 1452 1451 1450 1448 1447 1446 1445 1443 1442 1440 1438 1437 1435 1434 1433 1432 1432 1431 1429 1429 1428 1428 1427 1426